User: anonymous   Login
Location: Unspecified
(0.0000°N, 0.0000°E)
Time: 09:16:54
(UTC+00:00)
Language:

USA 135 - Orbit

View from above orbital plane
View from above orbital plane
View from above satellite
View from above satellite

Ground track
Ground track

The orbit data is extracted from the following two-line orbital elements,

1 25019U 97065A   17140.77049330 0.00000000  00000-0  00000-0 0    03
2 25019   8.8378  44.0462 0004557 251.4062 108.5627  1.00270000    03
Epoch (UTC): 20 May 2017 18:29:30
Eccentricity: 0.0004557
inclination: 8.8378°
perigee height: 35767 km
apogee height: 35806 km
right ascension of ascending node: 44.0462°
argument of perigee: 251.4062°
revolutions per day: 1.00270000
mean anomaly at epoch: 108.5627°
orbit number at epoch: 0

The dashed part of the orbit path shows where the satellite is in the earth's shadow,  

DLR